Regional Weather Roundup
Issued by NWS

Home | Current Version | Previous Version | Graphics & Text | Print | Product List | Glossary On
Versions: 1 2 3 4 5 6 7 8 9 10 11 12 13 14 15 16 17 18 19 20 21 22 23 24 25 26 27 28 29 30 31 32 33 34 35 36 37 38 39 40 41 42 43 44 45 46 47 48 49 50
000
ASUS43 KLOT 191800
RWRIL

ILLINOIS REGIONAL WEATHER ROUNDUP
NATIONAL WEATHER SERVICE CHICAGO/ROMEOVILLE IL
1200 PM CST FRI DEC 19 2014

NOTE: "FAIR" INDICATES FEW OR NO CLOUDS BELOW 12,000 FEET WITH NO
SIGNIFICANT WEATHER AND/OR OBSTRUCTIONS TO VISIBILITY.

* THESE STATIONS ARE NOT UNDER NWS QUALITY CONTROL. THEY ALSO MAY NOT
  REPORT WEATHER SUCH AS PRECIPITATION OR FOG.

ILZ001-002-007-009-015-016-024-191900-
NORTHWEST ILLINOIS

CITY           SKY/WX    TMP DP  RH WIND       PRES   REMARKS
MOLINE         SUNNY     30  19  63 E3        30.30F
6HR MIN TEMP:  15; 6HR MAX TEMP:  31;

STERLING*      CLOUDY    28  21  74 CALM      30.30F
$$

ILZ003-004-008-010-011-017-018-191900-
NORTH CENTRAL ILLINOIS

CITY           SKY/WX    TMP DP  RH WIND       PRES   REMARKS
ROCKFORD       CLOUDY    28  21  75 CALM      30.32F
6HR MIN TEMP:  27; 6HR MAX TEMP:  28; 6HR PCP: TRACE;

$$

ILZ005-006-012>014-019>023-191900-
NORTHEAST ILLINOIS

CITY           SKY/WX    TMP DP  RH WIND       PRES   REMARKS
CHICAGO-OHARE  CLOUDY    31  21  66 N3        30.29F
6HR MIN TEMP:  28; 6HR MAX TEMP:  31;

CHICAGO-MIDWAY CLOUDY    33  23  66 N3        30.29F
6HR MIN TEMP:  30; 6HR MAX TEMP:  33;

AURORA         CLOUDY    33  22  63 S7        30.29F WCI  27
6HR MIN TEMP:  24; 6HR MAX TEMP:  34;

WAUKEGAN       CLOUDY    28  20  71 VRB3      30.29F
6HR MIN TEMP:  26; 6HR MAX TEMP:  29;

DUPAGE AIRPORT CLOUDY    31  21  66 VRB3      30.28F
6HR MIN TEMP:  27; 6HR MAX TEMP:  31;

WHEELING       CLOUDY    30  20  66 NW5       30.31F WCI  25
6HR MIN TEMP:  28; 6HR MAX TEMP:  30;

NORTHERLY ISL    N/A     32  21  64 S5          N/A  WCI  27
$$

LMZ740>746-191900-
SOUTHERN LAKE MICHIGAN

STATION/POSITION SKY/WX   TEMP    WIND        PRES    VSBY  WAVE
                          AIR SEA DIR/SP/G                  HT/PER
                          (F)     (DEG/KT/KT) (MB)    (MI)  (FT/S)
WAUKEGAN HARBOR            29      CALM  /  3   N/A
HARRISON CRIB              31     270/  6/  7   N/A
BURNHAM HARBOR             32     250/  2/  8   N/A
CALUMET HARBOR             31     290/  3/  5 1024.8F
$$

ILZ025>027-034>036-040-047-049-050-058-095>099-191900-
WEST-CENTRAL ILLINOIS

CITY           SKY/WX    TMP DP  RH WIND       PRES   REMARKS
QUINCY         CLOUDY    32  23  69 E3        30.28F
$$

ILZ028>032-037-038-041>044-048-051>054-059>061-191900-
CENTRAL ILLINOIS

CITY           SKY/WX    TMP DP  RH WIND       PRES   REMARKS
DECATUR        SUNNY     32  24  72 E6        30.30F WCI  26
PEORIA         SUNNY     32  19  58 E3        30.30F
6HR MIN TEMP:  18; 6HR MAX TEMP:  33;

SPRINGFIELD    CLOUDY    35  22  58 E3        30.30F
6HR MIN TEMP:  23; 6HR MAX TEMP:  35;

TAYLORVILLE    NOT AVBL
$$

ILZ033-039-045-046-055>057-062-063-191900-
EAST-CENTRAL ILLINOIS

CITY           SKY/WX    TMP DP  RH WIND       PRES   REMARKS
CHAMPAIGN      SUNNY     31  21  66 CALM      30.29F
MATTOON        SUNNY     32  22  66 NE6       30.29F WCI  26
$$

ILZ079-100>102-191900-
SOUTHWEST ILLINOIS

CITY           SKY/WX    TMP DP  RH WIND       PRES   REMARKS
ALTON          CLOUDY    34  27  75 VRB5      30.31F HAZE    WCI  30
CAHOKIA*       CLOUDY    37  28  70 CALM      30.29F
$$

ILZ064>066-069>071-074>076-080>082-084>086-088>090-092>094-191900-
SOUTH-CENTRAL ILLINOIS

CITY           SKY/WX    TMP DP  RH WIND       PRES   REMARKS
CARBONDALE     CLOUDY    36  27  69 NE5       30.29F WCI  32
6HR MIN TEMP:  32; 6HR MAX TEMP:  36;

MARION         CLOUDY    36  28  75 N6        30.29F WCI  31
MT. VERNON     CLOUDY    36  23  60 E5        30.29F WCI  32
$$

ILZ067-068-072-073-078-083-087-091-191900-
SOUTHEAST ILLINOIS

CITY           SKY/WX    TMP DP  RH WIND       PRES   REMARKS
LAWRENCEVILLE  MOSUNNY   34  24  67 CALM      30.30F
$$

ABBREVIATIONS USED IN REMARKS
   TC - TEMPERATURE IN CELSIUS
  WCI - WIND CHILL INDEX
   HX - HEAT INDEX
  VSB - VISIBILITY
$$



USA.gov is the U.S. government's official web portal to all federal, state and local government web resources and services.